Aurora, OR

7:14 AM PDT on August 29, 2016 (GMT -0700)
Aurora State

Weather History for KUAO - September, 2012

Change the Weather History Date:

Sunday, September 2, 2012

  Actual Average Record
Temperature  
Mean Temperature 62 °F -  
Max Temperature 77 °F - 96 °F (2003)
Min Temperature 46 °F - 46 °F (2012)
Degree Days  
Heating Degree Days 3    
Month to date heating degree days 6  
Since 1 July heating degree days 46  
Cooling Degree Days 0    
Month to date cooling degree days 0  
Year to date cooling degree days 251  
Growing Degree Days 12 (Base 50)    
Moisture  
Dew Point 47 °F    
Average Humidity 61    
Maximum Humidity 93    
Minimum Humidity 29    
Precipitation  
Precipitation 0.00 in - 0.33 in (1961)
Month to date precipitation 0.00  
Year to date precipitation 29.85  
Sea Level Pressure  
Sea Level Pressure 30.15 in    
Wind  
Wind Speed 4 mph (NNE)    
Max Wind Speed 10 mph    
Max Gust Speed 17 mph    
Visibility 10 miles    
Events      
T = Trace of Precipitation, MM = Missing Value Source: NWS Daily Summary

Daily Weather History Graph

Daily Weather History Graph

Search for Another Location

Airport or City:

Trip Planner

Search our weather history database for the weather conditions in past years. The results will help you decide how hot, cold, wet, or windy it might be!

Date:

Astronomy

Sep. 02, 2012 Rise Set
Actual Time 6:34 AM PDT 7:45 PM PDT
Civil Twilight 6:04 AM PDT 8:15 PM PDT
Nautical Twilight 5:27 AM PDT 8:52 PM PDT
Astronomical Twilight 4:49 AM PDT 9:30 PM PDT
Moon 8:24 PM PDT (9/2) 8:58 AM PDT (9/2)
Length of Visible Light 14h 11m
Length of Day
13h 10m
Waning Gibbous, 95% of the Moon is Illuminated
Sep 2
Waning Gibbous
Sep 8
Last Quarter
Sep 15
New
Sep 22
First Quarter
Sep 29
Full

Hourly Weather History & Observations

Time (PDT) Temp. Dew Point Humidity Pressure Visibility Wind Dir Wind Speed Gust Speed Precip Events Conditions
1:53 AM 52.0 °F 46.0 °F 80% 30.17 in 10.0 mi Calm Calm - N/A   Clear
2:53 AM 51.1 °F 46.9 °F 86% 30.17 in 10.0 mi Calm Calm - N/A   Clear
3:53 AM 50.0 °F 46.0 °F 86% 30.18 in 10.0 mi Calm Calm - N/A   Clear
4:53 AM 48.9 °F 45.0 °F 86% 30.18 in 10.0 mi NE 3.5 mph - N/A   Clear
5:53 AM 48.0 °F 45.0 °F 89% 30.19 in 10.0 mi Calm Calm - N/A   Clear
6:53 AM 46.0 °F 45.0 °F 96% 30.20 in 10.0 mi Calm Calm - N/A   Clear
7:53 AM 51.1 °F 48.0 °F 89% 30.21 in 10.0 mi Calm Calm - N/A   Clear
8:53 AM 55.9 °F 48.0 °F 75% 30.21 in 10.0 mi Calm Calm - N/A   Clear
9:53 AM 59.0 °F 48.0 °F 67% 30.21 in 10.0 mi Calm Calm - N/A   Clear
10:53 AM 63.0 °F 46.9 °F 56% 30.20 in 10.0 mi Variable 4.6 mph - N/A   Clear
11:53 AM 64.9 °F 46.0 °F 50% 30.19 in 10.0 mi North 5.8 mph - N/A   Clear
12:53 PM 69.1 °F 46.0 °F 44% 30.17 in 10.0 mi Variable 3.5 mph - N/A   Clear
1:53 PM 71.1 °F 43.0 °F 36% 30.16 in 10.0 mi Variable 6.9 mph - N/A   Clear
2:53 PM 73.0 °F 42.1 °F 33% 30.14 in 10.0 mi Variable 3.5 mph - N/A   Clear
3:53 PM 75.9 °F 42.1 °F 30% 30.12 in 10.0 mi NNE 5.8 mph - N/A   Clear
4:53 PM 77.0 °F 43.0 °F 30% 30.11 in 10.0 mi NNE 6.9 mph - N/A   Clear
5:53 PM 75.9 °F 45.0 °F 33% 30.10 in 10.0 mi ENE 8.1 mph - N/A   Clear
6:53 PM 75.0 °F 48.0 °F 38% 30.09 in 10.0 mi NE 6.9 mph - N/A   Clear
7:53 PM 70.0 °F 48.0 °F 46% 30.09 in 10.0 mi NNE 5.8 mph - N/A   Clear
8:53 PM 64.0 °F 50.0 °F 60% 30.10 in 10.0 mi North 5.8 mph - N/A   Clear
9:53 PM 62.1 °F 51.1 °F 67% 30.11 in 10.0 mi North 6.9 mph - N/A   Clear
10:53 PM 61.0 °F 52.0 °F 72% 30.11 in 10.0 mi NNE 5.8 mph - N/A   Clear
11:53 PM 61.0 °F 53.1 °F 75% 30.11 in 10.0 mi NE 5.8 mph - N/A   Clear